AAL3071 MDLR-KMIA

Flight info

Callsign AAL3071
Flight time N/A
Altitude 34000
Route KERSO2M KERSO DCT MALVN Y261 MADIZ VIICE2
Aircraft A21N/M-SDE2E3FGHIRWXY/LB1

Departure

Time 2026-04-20 13:13
Airport Casa De Campo International Airport (MDLR)

Arrival

Time N/A
Airport Miami International Airport (KMIA)
Time Latitude Longitude Altitude Speed Heading
2026-04-20 12:36 18.44942 -68.91330 226 ft 0 kts 187°
2026-04-20 13:04 18.44947 -68.91330 226 ft 2 kts 186°
2026-04-20 13:04 18.44966 -68.91328 226 ft 3 kts 178°
2026-04-20 13:04 18.44986 -68.91330 226 ft 3 kts 169°
2026-04-20 13:05 18.45005 -68.91336 226 ft 3 kts 157°
2026-04-20 13:05 18.45023 -68.91346 226 ft 3 kts 138°
2026-04-20 13:05 18.45034 -68.91360 226 ft 2 kts 107°
2026-04-20 13:05 18.45036 -68.91367 226 ft 0 kts 97°
2026-04-20 13:08 18.45035 -68.91360 226 ft 4 kts 97°
2026-04-20 13:08 18.45032 -68.91335 226 ft 5 kts 97°
2026-04-20 13:08 18.45027 -68.91290 226 ft 8 kts 96°
2026-04-20 13:09 18.45020 -68.91220 226 ft 11 kts 96°
2026-04-20 13:09 18.45060 -68.91159 226 ft 13 kts 11°
2026-04-20 13:09 18.45160 -68.91147 227 ft 16 kts
2026-04-20 13:09 18.45242 -68.91085 228 ft 18 kts 94°
2026-04-20 13:10 18.45226 -68.90950 227 ft 19 kts 97°
2026-04-20 13:10 18.45209 -68.90802 227 ft 21 kts 97°
2026-04-20 13:10 18.45191 -68.90641 228 ft 23 kts 96°
2026-04-20 13:10 18.45171 -68.90468 227 ft 24 kts 97°
2026-04-20 13:11 18.45149 -68.90285 225 ft 26 kts 97°
2026-04-20 13:11 18.45126 -68.90093 223 ft 27 kts 97°
2026-04-20 13:11 18.45104 -68.89905 225 ft 20 kts 98°
2026-04-20 13:11 18.45073 -68.89782 224 ft 19 kts 28°
2026-04-20 13:12 18.45098 -68.89857 225 ft 10 kts 281°
2026-04-20 13:12 18.45101 -68.89874 225 ft 0 kts 276°
2026-04-20 13:12 18.45101 -68.89876 225 ft 5 kts 276°
2026-04-20 13:13 18.45140 -68.90220 224 ft 94 kts 277°
2026-04-20 13:13 18.45256 -68.91202 235 ft 170 kts 277°
2026-04-20 13:13 18.45429 -68.92484 954 ft 179 kts 278°
2026-04-20 13:13 18.45570 -68.93798 1866 ft 188 kts 276°
2026-04-20 13:14 18.45738 -68.95243 2621 ft 206 kts 277°
2026-04-20 13:14 18.45915 -68.96836 3181 ft 235 kts 276°
2026-04-20 13:14 18.46116 -68.98631 3690 ft 264 kts 277°
2026-04-20 13:14 18.46352 -69.00661 4395 ft 283 kts 277°
2026-04-20 13:15 18.46594 -69.02733 4875 ft 286 kts 277°
2026-04-20 13:15 18.46838 -69.04822 5049 ft 287 kts 277°
2026-04-20 13:15 18.47080 -69.06886 5066 ft 288 kts 277°
2026-04-20 13:15 18.47371 -69.08994 5054 ft 288 kts 283°
2026-04-20 13:16 18.48253 -69.10850 5186 ft 284 kts 313°
2026-04-20 13:16 18.49648 -69.12334 6102 ft 287 kts 318°
2026-04-20 13:16 18.51084 -69.13776 7127 ft 290 kts 318°
2026-04-20 13:16 18.52544 -69.15257 8130 ft 293 kts 317°
2026-04-20 13:17 18.54017 -69.16763 9091 ft 297 kts 317°
2026-04-20 13:17 18.55503 -69.18290 10042 ft 300 kts 317°
2026-04-20 13:17 18.57037 -69.19867 10669 ft 318 kts 317°
2026-04-20 13:17 18.58674 -69.21556 11066 ft 341 kts 316°
2026-04-20 13:18 18.60420 -69.23359 11502 ft 360 kts 316°
2026-04-20 13:18 18.62225 -69.25227 12295 ft 366 kts 316°
2026-04-20 13:18 18.64049 -69.27116 13196 ft 368 kts 316°
2026-04-20 13:18 18.65880 -69.29017 14041 ft 372 kts 316°
2026-04-20 13:19 18.67733 -69.30940 14834 ft 375 kts 316°
2026-04-20 13:19 18.69599 -69.32876 15606 ft 378 kts 316°
2026-04-20 13:19 18.71485 -69.34830 16324 ft 382 kts 316°
2026-04-20 13:19 18.73387 -69.36802 17017 ft 385 kts 316°
2026-04-20 13:20 18.75309 -69.38800 17694 ft 389 kts 316°
2026-04-20 13:20 18.76617 -69.40157 18144 ft 391 kts 316°
2026-04-20 13:20 18.78560 -69.42175 18784 ft 394 kts 316°
2026-04-20 13:20 18.80493 -69.44183 19409 ft 396 kts 316°
2026-04-20 13:21 18.82464 -69.46231 20014 ft 399 kts 316°
2026-04-20 13:21 18.84449 -69.48291 20620 ft 402 kts 316°
2026-04-20 13:21 18.86451 -69.50369 21228 ft 404 kts 316°
2026-04-20 13:21 18.88461 -69.52461 21832 ft 407 kts 316°
2026-04-20 13:22 18.90481 -69.54566 22422 ft 410 kts 316°
2026-04-20 13:22 18.92515 -69.56690 22997 ft 412 kts 316°
2026-04-20 13:22 18.94557 -69.58819 23522 ft 414 kts 316°
2026-04-20 13:22 18.96620 -69.60964 24030 ft 417 kts 316°
2026-04-20 13:23 18.98685 -69.63120 24518 ft 419 kts 316°
2026-04-20 13:23 19.00765 -69.65289 24999 ft 421 kts 316°
2026-04-20 13:23 19.02857 -69.67474 25480 ft 424 kts 316°
2026-04-20 13:23 19.04945 -69.69681 25942 ft 426 kts 314°
2026-04-20 13:24 19.06919 -69.72029 26395 ft 428 kts 311°
2026-04-20 13:24 19.08870 -69.74419 26841 ft 430 kts 311°
2026-04-20 13:24 19.10826 -69.76825 27277 ft 433 kts 311°
2026-04-20 13:24 19.12789 -69.79241 27692 ft 434 kts 311°
2026-04-20 13:25 19.14766 -69.81667 28110 ft 436 kts 311°
2026-04-20 13:25 19.16749 -69.84098 28618 ft 435 kts 311°
2026-04-20 13:25 19.18724 -69.86509 29177 ft 433 kts 311°
2026-04-20 13:25 19.20688 -69.88915 29733 ft 431 kts 311°
2026-04-20 13:26 19.22641 -69.91308 30290 ft 428 kts 311°
2026-04-20 13:26 19.24577 -69.93690 30853 ft 425 kts 310°
2026-04-20 13:26 19.26500 -69.96053 31385 ft 423 kts 311°
2026-04-20 13:26 19.28419 -69.98406 31938 ft 420 kts 311°
2026-04-20 13:27 19.30319 -70.00744 32444 ft 418 kts 311°
2026-04-20 13:27 19.32209 -70.03073 32928 ft 416 kts 311°
2026-04-20 13:27 19.34093 -70.05390 33380 ft 415 kts 311°
2026-04-20 13:27 19.35972 -70.07700 33808 ft 413 kts 311°
2026-04-20 13:28 19.37846 -70.10004 34027 ft 412 kts 311°
2026-04-20 13:28 19.41570 -70.14594 34063 ft 410 kts 311°
2026-04-20 13:29 19.45282 -70.19184 34053 ft 410 kts 310°
2026-04-20 13:29 19.48991 -70.23763 34055 ft 409 kts 311°
2026-04-20 13:30 19.52704 -70.28334 34060 ft 409 kts 311°
2026-04-20 13:30 19.56406 -70.32919 34061 ft 409 kts 311°
2026-04-20 13:31 19.60106 -70.37503 34066 ft 409 kts 311°
2026-04-20 13:31 19.63805 -70.42077 34064 ft 408 kts 311°
2026-04-20 13:32 19.67496 -70.46654 34060 ft 409 kts 310°
2026-04-20 13:32 19.71202 -70.51243 34061 ft 409 kts 311°
2026-04-20 13:33 19.74878 -70.55804 34054 ft 409 kts 310°
2026-04-20 13:33 19.78580 -70.60392 34051 ft 409 kts 310°
2026-04-20 13:34 19.82277 -70.64991 34049 ft 409 kts 310°
2026-04-20 13:34 19.85969 -70.69594 34059 ft 409 kts 310°
2026-04-20 13:35 19.89658 -70.74201 34052 ft 409 kts 310°
2026-04-20 13:35 19.93357 -70.78811 34050 ft 410 kts 310°
2026-04-20 13:36 19.97061 -70.83422 34049 ft 410 kts 310°
2026-04-20 13:36 20.00772 -70.88037 34049 ft 410 kts 310°
2026-04-20 13:37 20.04467 -70.92649 34050 ft 409 kts 310°
2026-04-20 13:37 20.08160 -70.97252 34050 ft 409 kts 310°
2026-04-20 13:38 20.11846 -71.01863 34050 ft 409 kts 310°
2026-04-20 13:38 20.15538 -71.06487 34050 ft 409 kts 310°
2026-04-20 13:39 20.19225 -71.11098 34051 ft 410 kts 310°
2026-04-20 13:39 20.22917 -71.15730 34050 ft 410 kts 309°
2026-04-20 13:40 20.26615 -71.20368 34050 ft 411 kts 309°
2026-04-20 13:40 20.30303 -71.25008 34049 ft 411 kts 309°
2026-04-20 13:41 20.34001 -71.29652 34048 ft 411 kts 309°
2026-04-20 13:41 20.37692 -71.34291 34048 ft 411 kts 309°
2026-04-20 13:42 20.41371 -71.38953 34050 ft 410 kts 307°
2026-04-20 13:42 20.46200 -71.46481 34050 ft 410 kts 303°
2026-04-20 13:43 20.49376 -71.51533 34052 ft 410 kts 303°
2026-04-20 13:43 20.52549 -71.56588 34052 ft 410 kts 303°
2026-04-20 13:44 20.55722 -71.61649 34050 ft 410 kts 303°
2026-04-20 13:44 20.58900 -71.66707 34051 ft 410 kts 303°
2026-04-20 13:45 20.62086 -71.71764 34050 ft 410 kts 303°
2026-04-20 13:45 20.65255 -71.76828 34049 ft 410 kts 303°
2026-04-20 13:46 20.68432 -71.81896 34050 ft 410 kts 303°
2026-04-20 13:46 20.71585 -71.86933 34051 ft 411 kts 303°
2026-04-20 13:47 20.74761 -71.91998 34049 ft 410 kts 303°
2026-04-20 13:47 20.77920 -71.97066 34050 ft 409 kts 303°
2026-04-20 13:48 20.81079 -72.02121 34049 ft 409 kts 303°
2026-04-20 13:48 20.84237 -72.07195 34049 ft 409 kts 303°
2026-04-20 13:49 20.87398 -72.12260 34050 ft 409 kts 303°
2026-04-20 13:49 20.90545 -72.17321 34049 ft 408 kts 303°
2026-04-20 13:50 20.93687 -72.22376 34049 ft 408 kts 303°
2026-04-20 13:50 20.96829 -72.27429 34050 ft 408 kts 302°
2026-04-20 13:51 20.99970 -72.32485 34056 ft 407 kts 302°
2026-04-20 13:51 21.03098 -72.37539 34059 ft 407 kts 302°
2026-04-20 13:52 21.06233 -72.42591 34061 ft 407 kts 303°
2026-04-20 13:52 21.09363 -72.47649 34060 ft 407 kts 302°
2026-04-20 13:53 21.12486 -72.52697 34061 ft 406 kts 302°
2026-04-20 13:53 21.15611 -72.57744 34060 ft 406 kts 302°
2026-04-20 13:54 21.18728 -72.62797 34059 ft 406 kts 302°
2026-04-20 13:54 21.21846 -72.67848 34060 ft 406 kts 302°
2026-04-20 13:55 21.24959 -72.72902 34058 ft 406 kts 302°
2026-04-20 13:55 21.28070 -72.77961 34062 ft 406 kts 302°
2026-04-20 13:56 21.31182 -72.83020 34060 ft 406 kts 302°
2026-04-20 13:56 21.34287 -72.88074 34060 ft 406 kts 302°
2026-04-20 13:57 21.37389 -72.93126 34059 ft 406 kts 302°
2026-04-20 13:57 21.40490 -72.98174 34058 ft 406 kts 302°
2026-04-20 13:58 21.43594 -73.03237 34058 ft 406 kts 302°
2026-04-20 13:58 21.46671 -73.08266 34059 ft 406 kts 302°
2026-04-20 13:59 21.49761 -73.13328 34060 ft 405 kts 302°
2026-04-20 13:59 21.52856 -73.18389 34059 ft 405 kts 302°
2026-04-20 14:00 21.55946 -73.23459 34060 ft 405 kts 302°
2026-04-20 14:00 21.59025 -73.28516 34061 ft 405 kts 302°
2026-04-20 14:01 21.62114 -73.33567 34061 ft 404 kts 302°
2026-04-20 14:01 21.65197 -73.38628 34059 ft 404 kts 302°
2026-04-20 14:02 21.68270 -73.43686 34060 ft 404 kts 302°
2026-04-20 14:02 21.71353 -73.48752 34060 ft 404 kts 302°
2026-04-20 14:03 21.74424 -73.53804 34062 ft 404 kts 302°
2026-04-20 14:03 21.77491 -73.58861 34061 ft 404 kts 302°
2026-04-20 14:04 21.80554 -73.63919 34068 ft 404 kts 302°
2026-04-20 14:04 21.83614 -73.68985 34070 ft 403 kts 302°
2026-04-20 14:05 21.86159 -73.73187 34072 ft 403 kts 302°
2026-04-20 14:05 21.89213 -73.78239 34070 ft 402 kts 302°
2026-04-20 14:06 21.92260 -73.83286 34071 ft 402 kts 302°
2026-04-20 14:06 21.95312 -73.88335 34070 ft 402 kts 302°
2026-04-20 14:07 21.98354 -73.93380 34070 ft 402 kts 301°
2026-04-20 14:07 22.01400 -73.98439 34075 ft 402 kts 302°
2026-04-20 14:08 22.04439 -74.03496 34082 ft 402 kts 301°
2026-04-20 14:08 22.07482 -74.08553 34081 ft 402 kts 302°
2026-04-20 14:09 22.10521 -74.13611 34081 ft 402 kts 301°
2026-04-20 14:09 22.13558 -74.18672 34081 ft 402 kts 301°
2026-04-20 14:10 22.16586 -74.23737 34078 ft 402 kts 301°
2026-04-20 14:10 22.19616 -74.28800 34083 ft 402 kts 301°
2026-04-20 14:11 22.22653 -74.33866 34081 ft 402 kts 301°
2026-04-20 14:11 22.25684 -74.38934 34075 ft 401 kts 301°
2026-04-20 14:12 22.28700 -74.43995 34081 ft 401 kts 301°
2026-04-20 14:12 22.31719 -74.49053 34089 ft 401 kts 301°
2026-04-20 14:13 22.34739 -74.54116 34091 ft 401 kts 301°
2026-04-20 14:13 22.37758 -74.59180 34088 ft 401 kts 301°
2026-04-20 14:14 22.40766 -74.64247 34092 ft 401 kts 301°
2026-04-20 14:14 22.43779 -74.69314 34088 ft 401 kts 301°
2026-04-20 14:15 22.46769 -74.74343 34092 ft 400 kts 301°
2026-04-20 14:15 22.49761 -74.79406 34093 ft 400 kts 301°
2026-04-20 14:16 22.52764 -74.84468 34092 ft 400 kts 301°
2026-04-20 14:16 22.55763 -74.89529 34097 ft 400 kts 301°
2026-04-20 14:17 22.58760 -74.94600 34100 ft 400 kts 301°
2026-04-20 14:17 22.61756 -74.99665 34100 ft 399 kts 301°
2026-04-20 14:18 22.64738 -75.04721 34100 ft 399 kts 301°
2026-04-20 14:18 22.67725 -75.09781 34100 ft 399 kts 301°
2026-04-20 14:19 22.70709 -75.14844 34100 ft 399 kts 301°
2026-04-20 14:19 22.73686 -75.19905 34100 ft 399 kts 301°
2026-04-20 14:20 22.76667 -75.24972 34101 ft 399 kts 301°
2026-04-20 14:20 22.79643 -75.30044 34100 ft 399 kts 301°
2026-04-20 14:21 22.82621 -75.35113 34104 ft 398 kts 301°
2026-04-20 14:21 22.85587 -75.40169 34111 ft 398 kts 301°
2026-04-20 14:22 22.88551 -75.45230 34111 ft 398 kts 301°
2026-04-20 14:22 22.91513 -75.50290 34110 ft 398 kts 301°
2026-04-20 14:23 22.94471 -75.55357 34110 ft 397 kts 301°
2026-04-20 14:23 22.97422 -75.60418 34110 ft 397 kts 301°
2026-04-20 14:24 23.00372 -75.65478 34110 ft 397 kts 301°
2026-04-20 14:24 23.03324 -75.70537 34110 ft 396 kts 301°
2026-04-20 14:25 23.06267 -75.75589 34110 ft 396 kts 301°
2026-04-20 14:25 23.09195 -75.80642 34111 ft 396 kts 301°
2026-04-20 14:26 23.12114 -75.85667 34109 ft 396 kts 301°
2026-04-20 14:26 23.15055 -75.90718 34101 ft 396 kts 301°
2026-04-20 14:27 23.17985 -75.95772 34109 ft 395 kts 301°
2026-04-20 14:27 23.20913 -76.00825 34110 ft 394 kts 301°
2026-04-20 14:28 23.23839 -76.05870 34111 ft 394 kts 301°
2026-04-20 14:28 23.26751 -76.10909 34110 ft 394 kts 301°
2026-04-20 14:29 23.29667 -76.15951 34110 ft 393 kts 301°
2026-04-20 14:29 23.32573 -76.20992 34111 ft 393 kts 301°
2026-04-20 14:30 23.35467 -76.26045 34110 ft 393 kts 301°
2026-04-20 14:30 23.38367 -76.31096 34111 ft 394 kts 301°
2026-04-20 14:31 23.41273 -76.36147 34111 ft 393 kts 301°
2026-04-20 14:31 23.44185 -76.41191 34110 ft 393 kts 301°
2026-04-20 14:32 23.47099 -76.46235 34111 ft 393 kts 301°
2026-04-20 14:32 23.49996 -76.51286 34111 ft 393 kts 301°
2026-04-20 14:33 23.52899 -76.56347 34110 ft 393 kts 301°
2026-04-20 14:33 23.55797 -76.61403 34111 ft 393 kts 301°
2026-04-20 14:34 23.58691 -76.66463 34110 ft 393 kts 300°
2026-04-20 14:34 23.61585 -76.71532 34110 ft 393 kts 300°
2026-04-20 14:35 23.64476 -76.76597 34110 ft 393 kts 300°
2026-04-20 14:35 23.67366 -76.81663 34111 ft 393 kts 300°
2026-04-20 14:36 23.70252 -76.86732 34111 ft 393 kts 300°
2026-04-20 14:36 23.73138 -76.91803 34113 ft 393 kts 301°
2026-04-20 14:37 23.76017 -76.96879 34119 ft 393 kts 300°
2026-04-20 14:37 23.78896 -77.01952 34120 ft 393 kts 300°
2026-04-20 14:38 23.81772 -77.07030 34121 ft 393 kts 300°
2026-04-20 14:38 23.84655 -77.12106 34120 ft 393 kts 301°
2026-04-20 14:39 23.87533 -77.17184 34121 ft 393 kts 300°
2026-04-20 14:39 23.90407 -77.22267 34121 ft 393 kts 300°
2026-04-20 14:40 23.93285 -77.27351 34121 ft 393 kts 300°
2026-04-20 14:40 23.96138 -77.32403 34120 ft 393 kts 300°
2026-04-20 14:41 23.99004 -77.37485 34119 ft 393 kts 300°
2026-04-20 14:41 24.01862 -77.42572 34118 ft 392 kts 300°
2026-04-20 14:42 24.04715 -77.47655 34119 ft 392 kts 300°
2026-04-20 14:42 24.07573 -77.52734 34120 ft 392 kts 300°
2026-04-20 14:43 24.10435 -77.57812 34120 ft 392 kts 300°
2026-04-20 14:43 24.13286 -77.62892 34120 ft 392 kts 300°
2026-04-20 14:44 24.16135 -77.67976 34120 ft 392 kts 300°
2026-04-20 14:44 24.18985 -77.73066 34120 ft 392 kts 300°
2026-04-20 14:45 24.21836 -77.78173 34121 ft 393 kts 300°
2026-04-20 14:45 24.24685 -77.83284 34120 ft 393 kts 300°
2026-04-20 14:46 24.27587 -77.88365 34120 ft 393 kts 302°
2026-04-20 14:46 24.30649 -77.93341 34120 ft 394 kts 302°
2026-04-20 14:47 24.33711 -77.98314 34121 ft 393 kts 302°
2026-04-20 14:48 24.38289 -78.05763 34120 ft 392 kts 302°
2026-04-20 14:48 24.41332 -78.10727 34120 ft 391 kts 302°
2026-04-20 14:49 24.44372 -78.15685 34120 ft 391 kts 302°
2026-04-20 14:49 24.47407 -78.20642 34121 ft 391 kts 302°
2026-04-20 14:50 24.50437 -78.25598 34120 ft 391 kts 302°
2026-04-20 14:50 24.53468 -78.30554 34120 ft 391 kts 302°
2026-04-20 14:51 24.56470 -78.35470 34122 ft 390 kts 302°
2026-04-20 14:51 24.58997 -78.39611 34121 ft 390 kts 302°
2026-04-20 14:52 24.62013 -78.44560 34121 ft 389 kts 302°
2026-04-20 14:52 24.65022 -78.49503 34120 ft 389 kts 301°
2026-04-20 14:53 24.68024 -78.54440 34120 ft 388 kts 301°
2026-04-20 14:53 24.71018 -78.59377 34120 ft 388 kts 301°
2026-04-20 14:54 24.74012 -78.64307 34120 ft 387 kts 301°
2026-04-20 14:54 24.76996 -78.69238 34120 ft 387 kts 301°
2026-04-20 14:55 24.79959 -78.74124 34119 ft 385 kts 301°
2026-04-20 14:55 24.82927 -78.79036 34118 ft 381 kts 301°
2026-04-20 14:56 24.85853 -78.83869 34120 ft 377 kts 301°
2026-04-20 14:56 24.87294 -78.86253 33963 ft 371 kts 301°
2026-04-20 14:56 24.88726 -78.88628 33698 ft 381 kts 301°
2026-04-20 14:56 24.90203 -78.91077 33451 ft 385 kts 301°